Hilo, HI

5:52 PM HST on February 11, 2016 (GMT -1000)
Hilo International

Weather History for PHTO - June, 2014

Change the Weather History Date:

Saturday, June 7, 2014

  Actual Average Record
Temperature  
Mean Temperature 74 °F 75 °F  
Max Temperature 82 °F 82 °F 87 °F (1977)
Min Temperature 66 °F 68 °F 64 °F (1975)
Degree Days  
Heating Degree Days 0 0  
Month to date heating degree days 0 0  
Since 1 June heating degree days 0 0  
Since 1 July heating degree days 0 0  
Cooling Degree Days 9 10  
Month to date cooling degree days 62 70  
Year to date cooling degree days 1318 1138  
Since 1 June cooling degree days 62 70  
Growing Degree Days 24 (Base 50)    
Moisture  
Dew Point 67 °F    
Average Humidity 79    
Maximum Humidity 100    
Minimum Humidity 58    
Precipitation  
Precipitation 0.05 in 0.22 in 1.73 in (1991)
Month to date precipitation 1.50 1.48  
Year to date precipitation 49.24 53.39  
Snow  
Snow 0.00 in - - ()
Month to date snowfall 0.0  
Since 1 June snowfall 0.0  
Since 1 July snowfall 0.0  
Snow Depth 0.00 in    
Sea Level Pressure  
Sea Level Pressure 30.02 in    
Wind  
Wind Speed 7 mph (South)    
Max Wind Speed 16 mph    
Max Gust Speed 19 mph    
Visibility 9 miles    
Events Rain    
T = Trace of Precipitation, MM = Missing Value Source: NWS Daily Summary

Daily Weather History Graph

Daily Weather History Graph

Search for Another Location

Airport or City:

Trip Planner

Search our weather history database for the weather conditions in past years. The results will help you decide how hot, cold, wet, or windy it might be!

Date:

Astronomy

Jun. 07, 2014 Rise Set
Actual Time 5:40 AM HST 6:57 PM HST
Civil Twilight 5:16 AM HST 7:22 PM HST
Nautical Twilight 4:47 AM HST 7:51 PM HST
Astronomical Twilight 4:17 AM HST 8:21 PM HST
Moon 2:03 PM HST (6/7) 1:26 AM HST (6/7)
Length of Visible Light 14h 06m
Length of Day
13h 17m
Waxing Gibbous, 70% of the Moon is Illuminated
Jun 7
Waxing Gibbous
Jun 12
Full
Jun 19
Last Quarter
Jun 26
New
Jul 5
First Quarter

Hourly Weather History & Observations

Time (HST) Temp. Heat Index Dew Point Humidity Pressure Visibility Wind Dir Wind Speed Gust Speed Precip Events Conditions
12:08 AM 66.9 °F - 64.9 °F 93% 30.05 in 7.0 mi South 8.1 mph - 0.01 in Rain Rain
12:53 AM 66.9 °F - 64.9 °F 93% 30.03 in 9.0 mi WSW 10.4 mph - 0.03 in Rain Light Rain
1:53 AM 66.0 °F - 64.9 °F 96% 30.02 in 4.0 mi West 4.6 mph - 0.01 in Rain Light Rain
2:53 AM 66.9 °F - 66.0 °F 97% 30.00 in 10.0 mi SW 3.5 mph - 0.01 in   Overcast
3:53 AM 68.0 °F - 64.9 °F 90% 30.00 in 10.0 mi WSW 6.9 mph - N/A   Mostly Cloudy
4:53 AM 68.0 °F - 64.9 °F 90% 30.01 in 10.0 mi SW 5.8 mph - N/A   Mostly Cloudy
5:53 AM 66.9 °F - 64.9 °F 93% 30.02 in 10.0 mi WSW 4.6 mph - N/A   Mostly Cloudy
6:53 AM 70.0 °F - 66.0 °F 87% 30.03 in 10.0 mi West 8.1 mph - N/A   Overcast
7:53 AM 73.0 °F - 66.0 °F 79% 30.04 in 10.0 mi Calm Calm - N/A   Mostly Cloudy
8:53 AM 75.0 °F - 66.0 °F 73% 30.06 in 10.0 mi South 3.5 mph - N/A   Mostly Cloudy
9:53 AM 77.0 °F - 66.0 °F 69% 30.05 in 10.0 mi NNW 4.6 mph - 0.00 in   Mostly Cloudy
10:53 AM 80.1 °F 82.7 °F 68.0 °F 67% 30.05 in 10.0 mi NNE 8.1 mph - N/A   Scattered Clouds
11:53 AM 79.0 °F - 64.9 °F 62% 30.04 in 10.0 mi ESE 6.9 mph - N/A   Mostly Cloudy
12:53 PM 82.0 °F 84.1 °F 66.0 °F 58% 30.02 in 10.0 mi East 9.2 mph 17.3 mph N/A   Mostly Cloudy
1:53 PM 80.1 °F 82.1 °F 66.0 °F 62% 30.00 in 10.0 mi ESE 11.5 mph - N/A   Mostly Cloudy
2:53 PM 80.1 °F 82.3 °F 66.9 °F 64% 29.99 in 10.0 mi ENE 10.4 mph 17.3 mph N/A   Mostly Cloudy
3:53 PM 79.0 °F - 69.1 °F 72% 29.98 in 10.0 mi East 13.8 mph - N/A   Mostly Cloudy
4:53 PM 79.0 °F - 66.9 °F 66% 29.98 in 10.0 mi East 11.5 mph - N/A   Mostly Cloudy
5:53 PM 75.9 °F - 68.0 °F 76% 29.99 in 10.0 mi East 9.2 mph - N/A   Scattered Clouds
6:53 PM 75.0 °F - 66.0 °F 73% 30.00 in 10.0 mi East 8.1 mph - N/A   Overcast
7:17 PM 73.0 °F - 69.1 °F 87% 30.01 in 10.0 mi East 18.4 mph - N/A   Overcast
7:24 PM 73.0 °F - 69.1 °F 87% 30.01 in 10.0 mi East 17.3 mph - N/A   Overcast
7:53 PM 72.0 °F - 68.0 °F 87% 30.02 in 10.0 mi East 11.5 mph - N/A   Scattered Clouds
8:53 PM 71.1 °F - 69.1 °F 93% 30.04 in 10.0 mi South 5.8 mph - 0.00 in Rain Light Rain
9:53 PM 71.1 °F - 68.0 °F 90% 30.04 in 10.0 mi West 8.1 mph - 0.00 in   Overcast
10:33 PM 70.0 °F - 68.0 °F 93% 30.05 in 10.0 mi South 5.8 mph - 0.02 in   Overcast
10:53 PM 69.1 °F - 68.0 °F 96% 30.05 in 5.0 mi SW 8.1 mph - 0.02 in Rain Rain
11:18 PM 69.1 °F - 68.0 °F 96% 30.05 in 10.0 mi WSW 6.9 mph - 0.04 in Rain Light Rain
11:53 PM 69.1 °F - 68.0 °F 96% 30.04 in 10.0 mi West 3.5 mph - 0.04 in   Overcast